Regional Weather Roundup
Issued by NWS

Home | Current Version | Previous Version | Graphics & Text | Print | Product List | Glossary On
Versions: 1 2 3 4 5 6 7 8 9 10 11 12 13 14 15 16 17 18 19 20 21 22 23 24 25 26 27 28 29 30 31 32 33 34 35 36 37 38 39 40 41 42 43 44 45 46 47 48 49 50
000
ASUS43 KBIS 191510
RWRND

NORTH DAKOTA REGIONAL WEATHER ROUNDUP
NATIONAL WEATHER SERVICE BISMARCK ND
900 AM CST FRI JAN 19 2018

NOTE: "FAIR" INDICATES FEW OR NO CLOUDS BELOW 12,000 FEET WITH NO
SIGNIFICANT WEATHER AND/OR OBSTRUCTIONS TO VISIBILITY.


NDZ001>003-009>011-017-191600-
NORTHWEST NORTH DAKOTA

CITY           SKY/WX    TMP DP  RH WIND       PRES   REMARKS
WILLISTON      CLEAR     37  19  48 W13       29.56F
MINOT          MOCLDY    41  29  62 W20       29.49R
MINOT AFB      CLOUDY    38  30  73 W17       29.47R
$$

NDZ018>021-031>035-040>046-191600-
SOUTHWEST NORTH DAKOTA

CITY           SKY/WX    TMP DP  RH WIND       PRES   REMARKS
BISMARCK       MOCLDY    21  18  88 S3        29.54F
DICKINSON      MOCLDY    35  30  82 W13       29.57R
GARRISON         N/A     39  30  70 NW24      29.53R
HETTINGER ARPT CLOUDY    28  24  85 NW9       29.64R WCI  19
$$

NDZ004>008-012>016-024-026-027-054-191600-
NORTHEAST NORTH DAKOTA

CITY           SKY/WX    TMP DP  RH WIND       PRES   REMARKS
GRAND FORKS    CLOUDY    31  27  85 SW7       29.44R
GRND FRKS AFB  MOCLDY    40  29  63 W15       29.44R
DEVILS LAKE    MOCLDY    38  30  73 W14       29.46S
$$

NDZ022-023-025-028>030-036>039-047>053-191600-
SOUTHEAST NORTH DAKOTA

CITY           SKY/WX    TMP DP  RH WIND       PRES   REMARKS
FARGO          FAIR      27  24  89 SW6       29.49S
JAMESTOWN      CLOUDY    31  26  82 W10       29.51R
$$





USA.gov is the U.S. government's official web portal to all federal, state and local government web resources and services.